Regional Weather Roundup
Issued by NWS

Home | Current Version | Previous Version | Text Only | Print | Product List | Glossary On
Versions: 1 2 3 4 5 6 7 8 9 10 11 12 13 14 15 16 17 18 19 20 21 22 23 24 25 26 27 28 29 30 31 32 33 34 35 36 37 38 39 40 41 42 43 44 45 46 47 48 49 50
287
ASUS43 KTOP 250559
RWRKS

WEATHER ROUNDUP FOR KANSAS
NATIONAL WEATHER SERVICE GOODLAND KS
1200 AM CST SAT FEB 25 2017

NOTE:  "FAIR" INDICATES FEW OR NO CLOUDS BELOW 12,000 FEET WITH NO
SIGNIFICANT WEATHER AND/OR OBSTRUCTIONS TO VISIBILITY.

KSZ001>006-013>018-027>032-041>047-250700-
NORTHWEST KANSAS

CITY           SKY/WX    TMP DP  RH WIND       PRES   REMARKS
GOODLAND       CLEAR     12  10  92 W5        30.12S
6HR MIN TEMP:  12; 6HR MAX TEMP:  28;

HAYS           CLEAR     14  10  84 W7        30.19S
HILL CITY      CLEAR     17  13  84 NW6       30.19R
6HR MIN TEMP:  17; 6HR MAX TEMP:  29;

RUSSELL        CLEAR     18  13  80 NW8       30.16F
6HR MIN TEMP:  17; 6HR MAX TEMP:  28;

$$

KSZ061>065-074>080-084>089-250700-
SOUTHWEST KANSAS

CITY           SKY/WX    TMP DP  RH WIND       PRES   REMARKS
DODGE CITY     CLEAR     12   7  80 N9        30.16S
6HR MIN TEMP:  11; 6HR MAX TEMP:  35;

ELKHART          N/A     21   7  55 N2          N/A
GARDEN CITY    CLEAR     14   6  70 N12       30.15S WCI   0
6HR MIN TEMP:  14; 6HR MAX TEMP:  34;

GREAT BEND     CLEAR     16  12  84 NW7       30.19S
LIBERAL        CLEAR     21   9  58 N5        30.16R
$$

KSZ066>073-081>083-090>101-250700-
SOUTHEAST KANSAS

CITY           SKY/WX    TMP DP  RH WIND       PRES   REMARKS
CHANUTE        CLEAR     26  16  65 NW10      30.14S WCI  16
6HR MIN TEMP:  26; 6HR MAX TEMP:  33;

COFFEYVILLE    CLOUDY    30  18  60 NW21G30   30.16R WCI  17
6HR MIN TEMP:  30; 6HR MAX TEMP:  37;

HUTCHINSON     CLEAR     22  15  75 NW9       30.18R
6HR MIN TEMP:  22; 6HR MAX TEMP:  32;

MEDICINE LODGE   N/A     19  13  77 N8        30.19R
NEWTON         CLEAR     22  17  81 NW13      30.16S WCI  10
PARSONS        PTCLDY    28  16  60 N15       30.16R WCI  16
6HR MIN TEMP:  28; 6HR MAX TEMP:  35;

WICHITA INTL   CLEAR     25  16  68 NW12      30.18R WCI  14
6HR MIN TEMP:  24; 6HR MAX TEMP:  34;

WICHITA JABRA  CLEAR     23  16  74 NW9       30.17R
6HR MIN TEMP:  23; 6HR MAX TEMP:  32;

WINFIELD       CLEAR     25  17  72 N9        30.19R
6HR MIN TEMP:  25; 6HR MAX TEMP:  34;

$$

KSZ007>012-019>026-033>040-048>060-102>105-250700-
NORTHEAST KANSAS

CITY           SKY/WX    TMP DP  RH WIND       PRES   REMARKS
CONCORDIA      CLEAR     22  15  75 NW10      30.14S WCI  11
6HR MIN TEMP:  20; 6HR MAX TEMP:  26;

EMPORIA        CLEAR     24  17  74 NW12      30.14R WCI  13
6HR MIN TEMP:  24; 6HR MAX TEMP:  30;

LAWRENCE       CLEAR     24  19  81 W13       30.10R WCI  12
6HR MIN TEMP:  24; 6HR MAX TEMP:  29; 6HR PCP: TRACE;

MANHATTAN      CLEAR     23  17  78 W5        30.15R
6HR MIN TEMP:  23; 6HR MAX TEMP:  28; 6HR PCP: TRACE;

OLATHE IND     PTCLDY    23  17  78 W12       30.08R WCI  12
6HR MIN TEMP:  23; 6HR MAX TEMP:  29; 6HR PCP: TRACE;

OLATHE EXE     MOCLDY    24  18  77 NW9       30.07R
6HR MIN TEMP:  23; 6HR MAX TEMP:  29;

SALINA         CLEAR     24  16  71 NW10      30.18S WCI  14
6HR MIN TEMP:  24; 6HR MAX TEMP:  30;

TOPEKA BILLARD CLEAR     25  19  78 W12       30.11R WCI  14
6HR MIN TEMP:  25; 6HR MAX TEMP:  29; 6HR PCP: TRACE;

TOPEKA FORBES  CLEAR     25  18  74 NW15      30.10R WCI  13
6HR MIN TEMP:  25; 6HR MAX TEMP:  30;

$$




USA.gov is the U.S. government's official web portal to all federal, state and local government web resources and services.